This is the latest recevied weather packets stored in our database for station/object W2MMD-13. If no packets are shown the sender has not sent any weather packets the latest 1 day(s).
| Time | Temp. | Humidity | Pressure | Rain* | Wind** | Luminosity | Snow |
|---|---|---|---|---|---|---|---|
| 1778047731 | 18.33° C | 81% | - | 0 mm | 4.92 m/s, 135° | - | - |
| 1778047720 | 18.33° C | 81% | - | 0 mm | 4.02 m/s, 135° | - | - |
| 1778047120 | 18.89° C | 80% | - | 0 mm | 5.81 m/s, 158° | - | - |
| 1778046520 | 18.89° C | 80% | - | 0 mm | 2.24 m/s, 45° | - | - |
| 1778045920 | 18.89° C | 80% | - | 0 mm | 5.81 m/s, 180° | - | - |
| 1778045331 | 18.89° C | 80% | - | 0 mm | 1.79 m/s, 203° | - | - |
| 1778045320 | 18.89° C | 80% | - | 0 mm | 3.13 m/s, 135° | - | - |
| 1778044720 | 18.89° C | 80% | - | 0 mm | 2.68 m/s, 158° | - | - |
| 1778044120 | 18.89° C | 80% | - | 0 mm | 2.24 m/s, 180° | - | - |
| 1778043531 | 18.89° C | 80% | - | 0 mm | 2.24 m/s, 203° | - | - |
| 1778043520 | 18.89° C | 80% | - | 0 mm | 3.13 m/s, 158° | - | - |
| 1778042920 | 18.89° C | 79% | - | 0 mm | 4.02 m/s, 158° | - | - |
| 1778042320 | 18.89° C | 79% | - | 0 mm | 2.24 m/s, 203° | - | - |
| 1778041831 | 18.89° C | 79% | - | 0 mm | 3.58 m/s, 135° | - | - |
| 1778041720 | 18.89° C | 79% | - | 0 mm | 3.58 m/s, 135° | - | - |
| 1778041212 | 18.89° C | 78% | - | 0 mm | 3.13 m/s, 180° | - | - |
| 1778041130 | 18.89° C | 78% | - | 0 mm | 3.13 m/s, 180° | - | - |
| 1778041120 | 18.89° C | 78% | - | 0 mm | 3.58 m/s, 113° | - | - |
| 1778040520 | 18.89° C | 77% | - | 0 mm | 4.02 m/s, 135° | - | - |
| 1778039920 | 18.89° C | 77% | - | 0 mm | 3.13 m/s, 135° | - | - |
| 1778039320 | 18.89° C | 76% | - | 0 mm | 3.58 m/s, 225° | - | - |
| 1778038720 | 19.44° C | 76% | - | 0 mm | 3.13 m/s, 158° | - | - |
| 1778038560 | 19.44° C | 76% | - | 0 mm | 3.58 m/s, 135° | - | - |
| 1778038131 | 19.44° C | 76% | - | 0 mm | 3.58 m/s, 135° | - | - |
| 1778038119 | 19.44° C | 76% | - | 0 mm | 4.02 m/s, 135° | - | - |
* Rain latest hour (hover to see other rain measurements)
** Current wind speed in m/s (hover to see current wind gust speed)